contact:dominique.lefevre@mio.osupytheas.fr, maurice.libes@osupytheas.fr, didier.mallarino@osupytheas.fr
Project:EMSO http://www.emso-fr.org/EMSO-France
Depth: 2436.0 m
Title:EMSO Ligure Ouest : Data MII capteur CSTAR
DateTime,Latitude,Longitude,Instrument_Serial,Reference_Counts,Signal_Counts,Corrected_Signal_raw_counts,Calculated_Beam_c_inverse_meters,Internal_thermistor_counts
DateTime,Latitude,Longitude,Instrument_Serial,Reference_Counts,Signal_Counts,Corrected_Signal_raw_counts,Calculated_Beam_c_inverse_meters,Internal_thermistor_counts
2024-03-29T00:01:03,42.805,6.029,CST-1368DR,4170,4223,10738,01.498,553
2024-03-29T00:04:05,42.805,6.029,CST-1368DR,4170,4226,10745,01.495,553
2024-03-29T00:07:06,42.805,6.029,CST-1368DR,4170,4223,10738,01.498,553
2024-03-29T00:10:08,42.805,6.029,CST-1368DR,4170,4221,10733,01.500,553
2024-03-29T00:13:09,42.805,6.029,CST-1368DR,4170,4221,10733,01.500,553
2024-03-29T00:16:11,42.805,6.029,CST-1368DR,4170,4222,10735,01.499,553
2024-03-29T00:19:12,42.805,6.029,CST-1368DR,4170,4223,10738,01.498,553
2024-03-29T00:22:14,42.805,6.029,CST-1368DR,4170,4224,10740,01.497,553
2024-03-29T00:25:16,42.805,6.029,CST-1368DR,4169,4219,10731,01.501,553
2024-03-29T00:28:17,42.805,6.029,CST-1368DR,4169,4220,10733,01.500,553
2024-03-29T00:31:19,42.805,6.029,CST-1368DR,4169,4220,10733,01.500,553
2024-03-29T00:34:20,42.805,6.029,CST-1368DR,4169,4220,10734,01.500,553
2024-03-29T00:37:22,42.805,6.029,CST-1368DR,4169,4219,10730,01.501,553
2024-03-29T00:40:24,42.805,6.029,CST-1368DR,4169,4221,10735,01.499,553
2024-03-29T00:43:25,42.805,6.029,CST-1368DR,4169,4222,10739,01.498,553
2024-03-29T00:46:27,42.805,6.029,CST-1368DR,4169,4219,10731,01.501,553
2024-03-29T00:49:28,42.805,6.029,CST-1368DR,4169,4220,10733,01.500,553
2024-03-29T00:52:30,42.805,6.029,CST-1368DR,4169,4219,10731,01.501,553
2024-03-29T00:55:31,42.805,6.029,CST-1368DR,4169,4221,10735,01.499,553
2024-03-29T00:58:33,42.805,6.029,CST-1368DR,4168,4221,10737,01.498,553
2024-03-29T01:01:35,42.805,6.029,CST-1368DR,4168,4219,10732,01.500,553
2024-03-29T01:04:36,42.805,6.029,CST-1368DR,4168,4221,10739,01.498,553
2024-03-29T01:07:38,42.805,6.029,CST-1368DR,4168,4219,10734,01.500,553
2024-03-29T01:10:39,42.805,6.029,CST-1368DR,4168,4215,10724,01.503,553
2024-03-29T01:13:41,42.805,6.029,CST-1368DR,4168,4219,10732,01.500,553
2024-03-29T01:16:42,42.805,6.029,CST-1368DR,4168,4219,10733,01.500,553
2024-03-29T01:19:44,42.805,6.029,CST-1368DR,4168,4216,10726,01.503,553
2024-03-29T01:22:46,42.805,6.029,CST-1368DR,4167,4212,10718,01.505,553
2024-03-29T01:25:47,42.805,6.029,CST-1368DR,4168,4217,10729,01.501,553
2024-03-29T01:28:49,42.805,6.029,CST-1368DR,4167,4217,10731,01.501,553
2024-03-29T01:31:50,42.805,6.029,CST-1368DR,4167,4217,10731,01.501,553
2024-03-29T01:34:52,42.805,6.029,CST-1368DR,4167,4220,10738,01.498,553
2024-03-29T01:37:54,42.805,6.029,CST-1368DR,4167,4220,10738,01.498,553
2024-03-29T01:40:55,42.805,6.029,CST-1368DR,4167,4217,10731,01.501,553
2024-03-29T01:43:57,42.805,6.029,CST-1368DR,4167,4221,10740,01.497,553
2024-03-29T01:46:58,42.805,6.029,CST-1368DR,4167,4221,10739,01.498,553
2024-03-29T01:50:00,42.805,6.029,CST-1368DR,4167,4220,10738,01.498,553
2024-03-29T01:53:01,42.805,6.029,CST-1368DR,4167,4220,10738,01.498,553
2024-03-29T01:56:03,42.805,6.029,CST-1368DR,4167,4218,10734,01.500,553
2024-03-29T01:59:05,42.805,6.029,CST-1368DR,4167,4219,10736,01.499,553
2024-03-29T02:02:06,42.805,6.029,CST-1368DR,4167,4222,10743,01.496,553
2024-03-29T02:05:08,42.805,6.029,CST-1368DR,4166,4217,10733,01.500,553
2024-03-29T02:08:09,42.805,6.029,CST-1368DR,4166,4219,10737,01.498,553
2024-03-29T02:11:11,42.805,6.029,CST-1368DR,4166,4217,10733,01.500,553
2024-03-29T02:14:12,42.805,6.029,CST-1368DR,4166,4217,10734,01.500,553
2024-03-29T02:17:14,42.805,6.029,CST-1368DR,4166,4216,10730,01.501,553
2024-03-29T02:20:16,42.805,6.029,CST-1368DR,4166,4217,10734,01.500,553
2024-03-29T02:23:17,42.805,6.029,CST-1368DR,4166,4217,10734,01.500,553
2024-03-29T02:26:19,42.805,6.029,CST-1368DR,4166,4216,10731,01.501,553
2024-03-29T02:29:20,42.805,6.029,CST-1368DR,4166,4220,10739,01.498,553
2024-03-29T02:32:22,42.805,6.029,CST-1368DR,4166,4219,10739,01.498,553
2024-03-29T02:35:24,42.805,6.029,CST-1368DR,4165,4220,10743,01.496,553
2024-03-29T02:38:25,42.805,6.029,CST-1368DR,4165,4219,10741,01.497,553
2024-03-29T02:41:27,42.805,6.029,CST-1368DR,4165,4219,10741,01.497,553
2024-03-29T02:44:28,42.805,6.029,CST-1368DR,4165,4218,10737,01.498,553
2024-03-29T02:47:30,42.805,6.029,CST-1368DR,4165,4219,10740,01.497,553
2024-03-29T02:50:31,42.805,6.029,CST-1368DR,4165,4219,10739,01.498,553
2024-03-29T02:53:33,42.805,6.029,CST-1368DR,4165,4216,10732,01.500,553
2024-03-29T02:56:35,42.805,6.029,CST-1368DR,4165,4216,10734,01.500,553
2024-03-29T02:59:36,42.805,6.029,CST-1368DR,4165,4218,10739,01.498,553
2024-03-29T03:02:38,42.805,6.029,CST-1368DR,4165,4214,10727,01.502,553
2024-03-29T03:05:39,42.805,6.029,CST-1368DR,4164,4213,10728,01.502,553
2024-03-29T03:08:41,42.805,6.029,CST-1368DR,4164,4216,10735,01.499,553
2024-03-29T03:11:42,42.805,6.029,CST-1368DR,4164,4214,10730,01.501,553
2024-03-29T03:14:44,42.805,6.029,CST-1368DR,4164,4212,10726,01.503,553
2024-03-29T03:17:46,42.805,6.029,CST-1368DR,4164,4212,10724,01.503,553
2024-03-29T03:20:47,42.805,6.029,CST-1368DR,4164,4210,10720,01.505,553
2024-03-29T03:23:49,42.805,6.029,CST-1368DR,4164,4214,10730,01.501,553
2024-03-29T03:26:50,42.805,6.029,CST-1368DR,4164,4197,10688,01.517,553
2024-03-29T03:29:52,42.805,6.029,CST-1368DR,4164,4198,10688,01.517,553
2024-03-29T03:32:54,42.805,6.029,CST-1368DR,4164,4197,10686,01.517,553
2024-03-29T03:35:55,42.805,6.029,CST-1368DR,4164,4197,10686,01.517,553
2024-03-29T03:38:57,42.805,6.029,CST-1368DR,4163,4197,10688,01.517,553
2024-03-29T03:41:58,42.805,6.029,CST-1368DR,4163,4191,10673,01.522,553
2024-03-29T03:45:00,42.805,6.029,CST-1368DR,4163,4198,10693,01.515,553
2024-03-29T03:48:01,42.805,6.029,CST-1368DR,4163,4195,10685,01.518,553
2024-03-29T03:51:03,42.805,6.029,CST-1368DR,4163,4193,10680,01.520,553
2024-03-29T03:54:05,42.805,6.029,CST-1368DR,4163,4193,10678,01.520,553
2024-03-29T03:57:06,42.805,6.029,CST-1368DR,4163,4196,10688,01.517,553
2024-03-29T04:00:08,42.805,6.029,CST-1368DR,4163,4196,10687,01.517,553
2024-03-29T04:03:09,42.805,6.029,CST-1368DR,4163,4194,10681,01.519,553
2024-03-29T04:06:11,42.805,6.029,CST-1368DR,4163,4193,10679,01.520,553
2024-03-29T04:09:12,42.805,6.029,CST-1368DR,4163,4202,10702,01.511,553
2024-03-29T04:12:14,42.805,6.029,CST-1368DR,4163,4207,10715,01.507,553
2024-03-29T04:15:16,42.805,6.029,CST-1368DR,4163,4206,10712,01.508,553
2024-03-29T04:18:17,42.805,6.029,CST-1368DR,4162,4207,10716,01.506,553
2024-03-29T04:21:19,42.805,6.029,CST-1368DR,4162,4207,10717,01.506,553
2024-03-29T04:24:20,42.805,6.029,CST-1368DR,4162,4207,10717,01.506,553
2024-03-29T04:27:22,42.805,6.029,CST-1368DR,4162,4209,10722,01.504,553
2024-03-29T04:30:23,42.805,6.029,CST-1368DR,4162,4206,10714,01.507,553
2024-03-29T04:33:25,42.805,6.029,CST-1368DR,4162,4201,10702,01.511,553
2024-03-29T04:36:27,42.805,6.029,CST-1368DR,4162,4204,10709,01.509,553
2024-03-29T04:39:28,42.805,6.029,CST-1368DR,4162,4207,10718,01.505,553
2024-03-29T04:42:30,42.805,6.029,CST-1368DR,4162,4212,10730,01.501,553
2024-03-29T04:45:31,42.805,6.029,CST-1368DR,4162,4203,10708,01.509,553
2024-03-29T04:48:33,42.805,6.029,CST-1368DR,4162,4208,10719,01.505,553
2024-03-29T04:51:35,42.805,6.029,CST-1368DR,4161,4207,10721,01.504,553
2024-03-29T04:54:36,42.805,6.029,CST-1368DR,4161,4198,10696,01.514,553
2024-03-29T04:57:38,42.805,6.029,CST-1368DR,4161,4203,10710,01.508,553
2024-03-29T05:00:39,42.805,6.029,CST-1368DR,4161,4198,10696,01.514,553
2024-03-29T05:03:41,42.805,6.029,CST-1368DR,4161,4188,10670,01.523,553
2024-03-29T05:06:42,42.805,6.029,CST-1368DR,4161,4193,10685,01.518,553
2024-03-29T05:09:44,42.805,6.029,CST-1368DR,4161,4205,10714,01.507,553
2024-03-29T05:12:46,42.805,6.029,CST-1368DR,4161,4206,10717,01.506,553
2024-03-29T05:15:47,42.805,6.029,CST-1368DR,4161,4203,10710,01.508,553
2024-03-29T05:18:49,42.805,6.029,CST-1368DR,4161,4215,10739,01.498,553
2024-03-29T05:21:50,42.805,6.029,CST-1368DR,4161,4203,10710,01.508,553
2024-03-29T05:24:52,42.805,6.029,CST-1368DR,4161,4204,10713,01.507,553
2024-03-29T05:27:53,42.805,6.029,CST-1368DR,4161,4198,10698,01.513,553
2024-03-29T05:30:55,42.805,6.029,CST-1368DR,4160,4204,10713,01.507,553
2024-03-29T05:33:57,42.805,6.029,CST-1368DR,4160,4194,10688,01.517,553
2024-03-29T05:36:58,42.805,6.029,CST-1368DR,4160,4190,10680,01.520,553
2024-03-29T05:40:00,42.805,6.029,CST-1368DR,4160,4216,10745,01.495,553
2024-03-29T05:43:01,42.805,6.029,CST-1368DR,4160,4218,10751,01.493,553
2024-03-29T05:46:03,42.805,6.029,CST-1368DR,4160,4220,10756,01.491,553
2024-03-29T05:49:05,42.805,6.029,CST-1368DR,4160,4219,10753,01.492,553
2024-03-29T05:52:06,42.805,6.029,CST-1368DR,4160,4217,10748,01.494,553
2024-03-29T05:55:08,42.805,6.029,CST-1368DR,4160,4218,10749,01.494,553
2024-03-29T05:58:09,42.805,6.029,CST-1368DR,4160,4217,10748,01.494,553
2024-03-29T06:01:11,42.805,6.029,CST-1368DR,4160,4216,10746,01.495,553
2024-03-29T06:04:12,42.805,6.029,CST-1368DR,4160,4217,10749,01.494,553
2024-03-29T06:07:14,42.805,6.029,CST-1368DR,4160,4220,10756,01.491,553
2024-03-29T06:10:16,42.805,6.029,CST-1368DR,4160,4219,10754,01.492,553
2024-03-29T06:13:17,42.805,6.029,CST-1368DR,4159,4219,10754,01.492,553
2024-03-29T06:16:19,42.805,6.029,CST-1368DR,4159,4219,10756,01.491,553
2024-03-29T06:19:20,42.805,6.029,CST-1368DR,4159,4220,10758,01.491,553
2024-03-29T06:22:22,42.805,6.029,CST-1368DR,4159,4219,10754,01.492,553
2024-03-29T06:25:23,42.805,6.029,CST-1368DR,4159,4216,10747,01.495,553
2024-03-29T06:28:25,42.805,6.029,CST-1368DR,4159,4216,10748,01.494,553
2024-03-29T06:31:27,42.805,6.029,CST-1368DR,4159,4214,10742,01.497,553
2024-03-29T06:34:28,42.805,6.029,CST-1368DR,4159,4215,10745,01.495,553
2024-03-29T06:37:30,42.805,6.029,CST-1368DR,4159,4219,10755,01.492,553
2024-03-29T06:40:31,42.805,6.029,CST-1368DR,4159,4217,10750,01.494,553
2024-03-29T06:43:33,42.805,6.029,CST-1368DR,4159,4211,10734,01.500,553
2024-03-29T06:46:35,42.805,6.029,CST-1368DR,4159,4214,10742,01.497,553
2024-03-29T06:49:36,42.805,6.029,CST-1368DR,4159,4216,10747,01.495,553
2024-03-29T06:52:38,42.805,6.029,CST-1368DR,4159,4218,10754,01.492,553
2024-03-29T06:55:39,42.805,6.029,CST-1368DR,4158,4198,10705,01.510,553
2024-03-29T06:58:41,42.805,6.029,CST-1368DR,4158,4215,10746,01.495,553
2024-03-29T07:01:42,42.805,6.029,CST-1368DR,4158,4199,10706,01.510,553
2024-03-29T07:04:44,42.805,6.029,CST-1368DR,4158,4199,10708,01.509,553
2024-03-29T07:07:46,42.805,6.029,CST-1368DR,4158,4202,10713,01.507,553
2024-03-29T07:10:47,42.805,6.029,CST-1368DR,4158,4198,10703,01.511,553
2024-03-29T07:13:49,42.805,6.029,CST-1368DR,4158,4202,10715,01.507,553
2024-03-29T07:16:50,42.805,6.029,CST-1368DR,4158,4211,10738,01.498,553
2024-03-29T07:19:52,42.805,6.029,CST-1368DR,4158,4209,10732,01.500,553
2024-03-29T07:22:53,42.805,6.029,CST-1368DR,4158,4201,10712,01.508,553
2024-03-29T07:25:55,42.805,6.029,CST-1368DR,4158,4207,10727,01.502,553
2024-03-29T07:28:57,42.805,6.029,CST-1368DR,4158,4204,10719,01.505,553
2024-03-29T07:31:58,42.805,6.029,CST-1368DR,4157,4206,10728,01.502,553
2024-03-29T07:35:00,42.805,6.029,CST-1368DR,4157,4207,10730,01.501,553
2024-03-29T07:38:01,42.805,6.029,CST-1368DR,4157,4210,10738,01.498,553
2024-03-29T07:41:03,42.805,6.029,CST-1368DR,4157,4207,10729,01.501,553
2024-03-29T07:44:05,42.805,6.029,CST-1368DR,4157,4206,10726,01.503,553
2024-03-29T07:47:06,42.805,6.029,CST-1368DR,4157,4203,10720,01.505,553
2024-03-29T07:50:08,42.805,6.029,CST-1368DR,4157,4203,10719,01.505,553
2024-03-29T07:53:09,42.805,6.029,CST-1368DR,4157,4205,10724,01.503,553
2024-03-29T07:56:11,42.805,6.029,CST-1368DR,4157,4202,10716,01.506,553
2024-03-29T07:59:12,42.805,6.029,CST-1368DR,4157,4202,10716,01.506,553
2024-03-29T08:02:14,42.805,6.029,CST-1368DR,4157,4203,10720,01.505,553
2024-03-29T08:05:16,42.805,6.029,CST-1368DR,4157,4205,10725,01.503,553
2024-03-29T08:08:17,42.805,6.029,CST-1368DR,4157,4197,10704,01.511,553
2024-03-29T08:11:19,42.805,6.029,CST-1368DR,4157,4206,10728,01.502,553
2024-03-29T08:14:20,42.805,6.029,CST-1368DR,4157,4202,10716,01.506,553
2024-03-29T08:17:22,42.805,6.029,CST-1368DR,4156,4200,10714,01.507,553
2024-03-29T08:20:23,42.805,6.029,CST-1368DR,4156,4201,10716,01.506,553
2024-03-29T08:23:25,42.805,6.029,CST-1368DR,4156,4196,10704,01.511,553
2024-03-29T08:26:27,42.805,6.029,CST-1368DR,4156,4195,10702,01.511,553
2024-03-29T08:29:28,42.805,6.029,CST-1368DR,4156,4198,10709,01.509,553
2024-03-29T08:32:30,42.805,6.029,CST-1368DR,4156,4198,10710,01.508,553
2024-03-29T08:35:31,42.805,6.029,CST-1368DR,4156,4197,10707,01.510,553
2024-03-29T08:38:33,42.805,6.029,CST-1368DR,4156,4200,10714,01.507,553
2024-03-29T08:41:35,42.805,6.029,CST-1368DR,4156,4199,10712,01.508,553
2024-03-29T08:44:36,42.805,6.029,CST-1368DR,4156,4201,10716,01.506,553
2024-03-29T08:47:38,42.805,6.029,CST-1368DR,4156,4199,10711,01.508,553
2024-03-29T08:50:39,42.805,6.029,CST-1368DR,4156,4197,10707,01.510,553
2024-03-29T08:53:41,42.805,6.029,CST-1368DR,4156,4196,10705,01.510,553
2024-03-29T08:56:42,42.805,6.029,CST-1368DR,4156,4197,10706,01.510,553
2024-03-29T08:59:44,42.805,6.029,CST-1368DR,4155,4196,10707,01.510,553
2024-03-29T09:02:46,42.805,6.029,CST-1368DR,4155,4197,10708,01.509,553
2024-03-29T09:05:47,42.805,6.029,CST-1368DR,4155,4192,10696,01.514,553
2024-03-29T09:08:49,42.805,6.029,CST-1368DR,4155,4199,10714,01.507,553
2024-03-29T09:11:50,42.805,6.029,CST-1368DR,4155,4194,10702,01.511,553
2024-03-29T09:14:52,42.805,6.029,CST-1368DR,4155,4200,10716,01.506,553
2024-03-29T09:17:53,42.805,6.029,CST-1368DR,4155,4204,10727,01.502,553
2024-03-29T09:20:55,42.805,6.029,CST-1368DR,4155,4201,10719,01.505,553
2024-03-29T09:23:57,42.805,6.029,CST-1368DR,4155,4203,10723,01.504,553
2024-03-29T09:26:58,42.805,6.029,CST-1368DR,4155,4202,10722,01.504,553
2024-03-29T09:30:00,42.805,6.029,CST-1368DR,4155,4202,10721,01.504,553
2024-03-29T09:33:01,42.805,6.029,CST-1368DR,4155,4200,10718,01.505,553
2024-03-29T09:36:03,42.805,6.029,CST-1368DR,4155,4201,10719,01.505,553
2024-03-29T09:39:05,42.805,6.029,CST-1368DR,4154,4202,10723,01.504,553
2024-03-29T09:42:06,42.805,6.029,CST-1368DR,4155,4205,10729,01.501,553
2024-03-29T09:45:08,42.805,6.029,CST-1368DR,4154,4201,10721,01.504,553
2024-03-29T09:48:09,42.805,6.029,CST-1368DR,4154,4203,10727,01.502,553
2024-03-29T09:51:11,42.805,6.029,CST-1368DR,4154,4202,10725,01.503,553
2024-03-29T09:54:12,42.805,6.029,CST-1368DR,4154,4200,10718,01.505,553
2024-03-29T09:57:14,42.805,6.029,CST-1368DR,4154,4197,10712,01.508,553
2024-03-29T10:00:16,42.805,6.029,CST-1368DR,4154,4199,10717,01.506,553
2024-03-29T10:03:17,42.805,6.029,CST-1368DR,4154,4201,10722,01.504,553
2024-03-29T10:06:19,42.805,6.029,CST-1368DR,4154,4201,10721,01.504,553
2024-03-29T10:09:20,42.805,6.029,CST-1368DR,4154,4199,10718,01.505,553
2024-03-29T10:12:22,42.805,6.029,CST-1368DR,4154,4202,10723,01.504,553
2024-03-29T10:15:23,42.805,6.029,CST-1368DR,4154,4202,10724,01.503,553
2024-03-29T10:18:25,42.805,6.029,CST-1368DR,4154,4197,10711,01.508,553
2024-03-29T10:21:27,42.805,6.029,CST-1368DR,4154,4204,10730,01.501,553
2024-03-29T10:24:28,42.805,6.029,CST-1368DR,4154,4203,10727,01.502,553
2024-03-29T10:27:30,42.805,6.029,CST-1368DR,4153,4196,10711,01.508,553
2024-03-29T10:30:31,42.805,6.029,CST-1368DR,4153,4199,10719,01.505,553
2024-03-29T10:33:33,42.805,6.029,CST-1368DR,4153,4198,10716,01.506,553
2024-03-29T10:36:34,42.805,6.029,CST-1368DR,4153,4200,10723,01.504,553
2024-03-29T10:39:36,42.805,6.029,CST-1368DR,4153,4200,10721,01.504,553
2024-03-29T10:42:38,42.805,6.029,CST-1368DR,4153,4200,10722,01.504,553
2024-03-29T10:45:39,42.805,6.029,CST-1368DR,4153,4202,10726,01.503,553
2024-03-29T10:48:41,42.805,6.029,CST-1368DR,4153,4199,10720,01.505,553
2024-03-29T10:51:42,42.805,6.029,CST-1368DR,4153,4201,10724,01.503,553
2024-03-29T10:54:44,42.805,6.029,CST-1368DR,4153,4198,10717,01.506,553
2024-03-29T10:57:46,42.805,6.029,CST-1368DR,4153,4202,10726,01.503,553
2024-03-29T11:00:47,42.805,6.029,CST-1368DR,4153,4200,10722,01.504,553
2024-03-29T11:03:49,42.805,6.029,CST-1368DR,4153,4203,10728,01.502,553
2024-03-29T11:06:50,42.805,6.029,CST-1368DR,4153,4202,10726,01.503,553
2024-03-29T11:09:52,42.805,6.029,CST-1368DR,4153,4202,10727,01.502,553
2024-03-29T11:12:53,42.805,6.029,CST-1368DR,4153,4203,10728,01.502,553
2024-03-29T11:15:55,42.805,6.029,CST-1368DR,4153,4203,10728,01.502,553
2024-03-29T11:18:57,42.805,6.029,CST-1368DR,4153,4206,10736,01.499,553
2024-03-29T11:21:58,42.805,6.029,CST-1368DR,4153,4203,10730,01.501,553
2024-03-29T11:25:00,42.805,6.029,CST-1368DR,4152,4204,10735,01.499,553
2024-03-29T11:28:01,42.805,6.029,CST-1368DR,4152,4202,10729,01.501,553
2024-03-29T11:31:03,42.805,6.029,CST-1368DR,4152,4200,10724,01.503,553
2024-03-29T11:34:04,42.805,6.029,CST-1368DR,4152,4197,10715,01.507,553
2024-03-29T11:37:06,42.805,6.029,CST-1368DR,4152,4202,10728,01.502,553
2024-03-29T11:40:08,42.805,6.029,CST-1368DR,4152,4197,10715,01.507,553
2024-03-29T11:43:09,42.805,6.029,CST-1368DR,4152,4202,10729,01.501,553
2024-03-29T11:46:11,42.805,6.029,CST-1368DR,4152,4200,10724,01.503,553
2024-03-29T11:49:12,42.805,6.029,CST-1368DR,4152,4203,10731,01.501,553
2024-03-29T11:52:14,42.805,6.029,CST-1368DR,4152,4203,10731,01.501,553
2024-03-29T11:55:15,42.805,6.029,CST-1368DR,4152,4194,10709,01.509,553
2024-03-29T11:58:17,42.805,6.029,CST-1368DR,4152,4203,10731,01.501,553
2024-03-29T12:01:19,42.805,6.029,CST-1368DR,4152,4199,10722,01.504,553
2024-03-29T12:04:20,42.805,6.029,CST-1368DR,4152,4203,10731,01.501,553
2024-03-29T12:07:22,42.805,6.029,CST-1368DR,4152,4202,10729,01.501,553
2024-03-29T12:10:23,42.805,6.029,CST-1368DR,4151,4199,10725,01.503,553
2024-03-29T12:13:25,42.805,6.029,CST-1368DR,4151,4202,10731,01.501,553
2024-03-29T12:16:27,42.805,6.029,CST-1368DR,4151,4200,10726,01.503,553
2024-03-29T12:19:28,42.805,6.029,CST-1368DR,4151,4195,10715,01.507,553
2024-03-29T12:22:30,42.805,6.029,CST-1368DR,4151,4198,10722,01.504,553
2024-03-29T12:25:31,42.805,6.029,CST-1368DR,4151,4199,10725,01.503,553
2024-03-29T12:28:33,42.805,6.029,CST-1368DR,4151,4189,10699,01.513,553
2024-03-29T12:31:34,42.805,6.029,CST-1368DR,4151,4185,10689,01.516,553
2024-03-29T12:34:36,42.805,6.029,CST-1368DR,4151,4186,10691,01.516,553
2024-03-29T12:37:38,42.805,6.029,CST-1368DR,4151,4186,10690,01.516,553
2024-03-29T12:40:39,42.805,6.029,CST-1368DR,4151,4187,10694,01.514,553
2024-03-29T12:43:41,42.805,6.029,CST-1368DR,4151,4187,10693,01.515,553
2024-03-29T12:46:42,42.805,6.029,CST-1368DR,4151,4187,10694,01.514,553
2024-03-29T12:49:44,42.805,6.029,CST-1368DR,4151,4185,10688,01.517,553
2024-03-29T12:52:46,42.805,6.029,CST-1368DR,4151,4171,10653,01.530,553
2024-03-29T12:55:47,42.805,6.029,CST-1368DR,4150,4171,10655,01.529,553
2024-03-29T12:58:49,42.805,6.029,CST-1368DR,4150,4172,10658,01.528,553
2024-03-29T13:01:50,42.805,6.029,CST-1368DR,4150,4177,10669,01.524,553
2024-03-29T13:04:52,42.805,6.029,CST-1368DR,4150,4170,10653,01.530,553
2024-03-29T13:07:53,42.805,6.029,CST-1368DR,4150,4173,10660,01.527,553
2024-03-29T13:10:55,42.805,6.029,CST-1368DR,4150,4172,10658,01.528,553
2024-03-29T13:13:57,42.805,6.029,CST-1368DR,4150,4172,10657,01.528,553
2024-03-29T13:16:58,42.805,6.029,CST-1368DR,4150,4172,10658,01.528,553
2024-03-29T13:20:00,42.805,6.029,CST-1368DR,4150,4173,10660,01.527,553
2024-03-29T13:23:01,42.805,6.029,CST-1368DR,4150,4171,10654,01.529,553
2024-03-29T13:26:03,42.805,6.029,CST-1368DR,4150,4172,10657,01.528,553
2024-03-29T13:29:04,42.805,6.029,CST-1368DR,4150,4175,10665,01.525,553
2024-03-29T13:32:06,42.805,6.029,CST-1368DR,4150,4175,10664,01.526,553
2024-03-29T13:35:08,42.805,6.029,CST-1368DR,4150,4175,10665,01.525,553
2024-03-29T13:38:09,42.805,6.029,CST-1368DR,4150,4172,10657,01.528,553
2024-03-29T13:41:11,42.805,6.029,CST-1368DR,4150,4169,10650,01.531,553
2024-03-29T13:44:12,42.805,6.029,CST-1368DR,4150,4173,10661,01.527,553
2024-03-29T13:47:14,42.805,6.029,CST-1368DR,4149,4173,10663,01.526,553
2024-03-29T13:50:16,42.805,6.029,CST-1368DR,4149,4172,10661,01.527,553
2024-03-29T13:53:17,42.805,6.029,CST-1368DR,4149,4172,10659,01.528,553
2024-03-29T13:56:19,42.805,6.029,CST-1368DR,4149,4173,10662,01.526,553
2024-03-29T13:59:20,42.805,6.029,CST-1368DR,4149,4171,10658,01.528,553
2024-03-29T14:02:22,42.805,6.029,CST-1368DR,4149,4173,10662,01.526,553
2024-03-29T14:05:23,42.805,6.029,CST-1368DR,4149,4172,10659,01.528,553
2024-03-29T14:08:25,42.805,6.029,CST-1368DR,4149,4169,10652,01.530,553
2024-03-29T14:11:27,42.805,6.029,CST-1368DR,4149,4169,10653,01.530,553
2024-03-29T14:14:28,42.805,6.029,CST-1368DR,4149,4170,10655,01.529,553
2024-03-29T14:17:30,42.805,6.029,CST-1368DR,4149,4170,10655,01.529,553
2024-03-29T14:20:31,42.805,6.029,CST-1368DR,4149,4171,10658,01.528,553
2024-03-29T14:23:33,42.805,6.029,CST-1368DR,4149,4172,10661,01.527,553
2024-03-29T14:26:34,42.805,6.029,CST-1368DR,4149,4174,10664,01.526,553
2024-03-29T14:29:36,42.805,6.029,CST-1368DR,4149,4172,10660,01.527,553
2024-03-29T14:32:38,42.805,6.029,CST-1368DR,4149,4170,10656,01.529,553
2024-03-29T14:35:39,42.805,6.029,CST-1368DR,4149,4173,10662,01.526,553
2024-03-29T14:38:41,42.805,6.029,CST-1368DR,4149,4173,10662,01.526,553
2024-03-29T14:41:42,42.805,6.029,CST-1368DR,4149,4173,10662,01.526,553
2024-03-29T14:44:44,42.805,6.029,CST-1368DR,4148,4173,10665,01.525,553
2024-03-29T14:47:46,42.805,6.029,CST-1368DR,4148,4174,10667,01.525,553
2024-03-29T14:50:47,42.805,6.029,CST-1368DR,4148,4174,10667,01.525,553
2024-03-29T14:53:49,42.805,6.029,CST-1368DR,4148,4176,10672,01.523,553
2024-03-29T14:56:50,42.805,6.029,CST-1368DR,4148,4174,10667,01.525,553
2024-03-29T14:59:52,42.805,6.029,CST-1368DR,4148,4172,10662,01.526,553
2024-03-29T15:02:53,42.805,6.029,CST-1368DR,4148,4173,10666,01.525,553
2024-03-29T15:05:55,42.805,6.029,CST-1368DR,4148,4173,10666,01.525,553
2024-03-29T15:08:57,42.805,6.029,CST-1368DR,4148,4173,10664,01.526,553
2024-03-29T15:11:58,42.805,6.029,CST-1368DR,4148,4172,10661,01.527,553
2024-03-29T15:15:00,42.805,6.029,CST-1368DR,4148,4172,10663,01.526,553
2024-03-29T15:18:01,42.805,6.029,CST-1368DR,4148,4145,10594,01.552,553
2024-03-29T15:21:03,42.805,6.029,CST-1368DR,4148,4145,10594,01.552,553
2024-03-29T15:24:04,42.805,6.029,CST-1368DR,4148,4159,10630,01.538,553
2024-03-29T15:27:06,42.805,6.029,CST-1368DR,4148,4165,10644,01.533,553
2024-03-29T15:30:08,42.805,6.029,CST-1368DR,4148,4160,10631,01.538,553
2024-03-29T15:33:09,42.805,6.029,CST-1368DR,4148,4158,10627,01.540,553
2024-03-29T15:36:11,42.805,6.029,CST-1368DR,4148,4160,10632,01.538,553
2024-03-29T15:39:12,42.805,6.029,CST-1368DR,4147,4159,10632,01.538,553
2024-03-29T15:42:14,42.805,6.029,CST-1368DR,4147,4160,10633,01.537,553
2024-03-29T15:45:15,42.805,6.029,CST-1368DR,4147,4161,10638,01.535,553
2024-03-29T15:48:17,42.805,6.029,CST-1368DR,4147,4160,10634,01.537,553
2024-03-29T15:51:19,42.805,6.029,CST-1368DR,4147,4160,10633,01.537,553
2024-03-29T15:54:20,42.805,6.029,CST-1368DR,4147,4158,10630,01.538,553
2024-03-29T15:57:22,42.805,6.029,CST-1368DR,4147,4165,10647,01.532,553
2024-03-29T16:00:23,42.805,6.029,CST-1368DR,4147,4166,10651,01.531,553
2024-03-29T16:03:25,42.805,6.029,CST-1368DR,4147,4162,10639,01.535,553
2024-03-29T16:06:27,42.805,6.029,CST-1368DR,4147,4160,10635,01.537,553
2024-03-29T16:09:28,42.805,6.029,CST-1368DR,4147,4162,10639,01.535,553
2024-03-29T16:12:30,42.805,6.029,CST-1368DR,4147,4163,10641,01.534,553
2024-03-29T16:15:31,42.805,6.029,CST-1368DR,4147,4165,10647,01.532,553
2024-03-29T16:18:33,42.805,6.029,CST-1368DR,4147,4166,10650,01.531,553
2024-03-29T16:21:34,42.805,6.029,CST-1368DR,4147,4159,10631,01.538,553
2024-03-29T16:24:36,42.805,6.029,CST-1368DR,4147,4165,10646,01.532,553
2024-03-29T16:27:38,42.805,6.029,CST-1368DR,4147,4166,10649,01.531,553
2024-03-29T16:30:39,42.805,6.029,CST-1368DR,4147,4163,10643,01.534,553
2024-03-29T16:33:41,42.805,6.029,CST-1368DR,4147,4163,10643,01.534,553
2024-03-29T16:36:42,42.805,6.029,CST-1368DR,4146,4147,10603,01.549,553